Total_Precipitation_Accumulation
0.12 0.18 0.37 0.63 0.84 1.20 1.16 0.82 0.50 0.32 0.23 0.17 0.13 0.11 0.10 0.08 0.07 0.06 0.05 0.06 0.07 0.07 0.07 0.06 0.06 0.05 0.05 0.05 0.04 0.04 0.03 0.02 0.01 0.01 0.01 0.01 0.01 0.01 0.01 0.01 0.01 0.00 0.00
0.12 0.19 0.28 0.40 0.47 0.55 0.65 0.67 0.62 0.46 0.33 0.28 0.23 0.21 0.17 0.13 0.12 0.12 0.13 0.12 0.12 0.11 0.09 0.10 0.09 0.08 0.06 0.05 0.04 0.03 0.01 0.01 0.01 0.01 0.01 0.00 0.00 0.00 0.00 0.00 0.00 0.00 0.00
0.08 0.15 0.18 0.25 0.35 0.44 0.57 0.57 0.50 0.40 0.33 0.31 0.27 0.25 0.23 0.21 0.20 0.21 0.19 0.14 0.12 0.12 0.12 0.11 0.09 0.07 0.05 0.04 0.03 0.02 0.02 0.01 0.01 0.01 0.02 0.02 0.01 0.00 0.00 0.00 0.00 0.00 0.00
0.04 0.08 0.12 0.17 0.26 0.40 0.46 0.42 0.38 0.35 0.32 0.29 0.28 0.27 0.26 0.25 0.23 0.20 0.18 0.14 0.10 0.08 0.06 0.05 0.04 0.03 0.02 0.01 0.01 0.01 0.01 0.02 0.01 0.01 0.02 0.02 0.03 0.04 0.02 0.01 0.00 0.00 0.00
0.03 0.06 0.09 0.14 0.22 0.30 0.34 0.33 0.30 0.29 0.28 0.27 0.27 0.26 0.25 0.22 0.19 0.13 0.09 0.05 0.03 0.01 0.01 0.01 0.01 0.01 0.01 0.01 0.01 0.02 0.02 0.02 0.02 0.02 0.02 0.02 0.02 0.04 0.06 0.03 0.01 0.00 0.00
0.03 0.05 0.06 0.10 0.14 0.19 0.24 0.25 0.25 0.27 0.27 0.30 0.32 0.28 0.23 0.17 0.10 0.05 0.03 0.01 0.01 0.00 0.00 0.00 0.01 0.01 0.01 0.02 0.03 0.03 0.03 0.03 0.04 0.03 0.03 0.04 0.05 0.05 0.07 0.06 0.02 0.01 0.00
0.03 0.05 0.07 0.08 0.10 0.13 0.17 0.20 0.21 0.21 0.19 0.17 0.14 0.12 0.09 0.07 0.05 0.03 0.02 0.01 0.00 0.00 0.00 0.00 0.00 0.01 0.01 0.01 0.02 0.02 0.03 0.03 0.04 0.05 0.05 0.05 0.06 0.06 0.08 0.09 0.06 0.04 0.01
0.04 0.07 0.08 0.08 0.09 0.10 0.11 0.12 0.11 0.09 0.08 0.07 0.07 0.05 0.04 0.04 0.03 0.03 0.02 0.01 0.01 0.00 0.00 0.01 0.01 0.01 0.01 0.01 0.02 0.03 0.03 0.05 0.06 0.05 0.07 0.07 0.06 0.07 0.10 0.14 0.16 0.14 0.07
0.06 0.08 0.08 0.08 0.08 0.06 0.06 0.06 0.06 0.05 0.05 0.05 0.05 0.03 0.02 0.02 0.03 0.02 0.01 0.01 0.01 0.00 0.01 0.01 0.01 0.02 0.02 0.03 0.05 0.06 0.06 0.08 0.08 0.08 0.08 0.09 0.09 0.10 0.12 0.16 0.24 0.29 0.21
0.09 0.09 0.08 0.07 0.06 0.05 0.05 0.05 0.05 0.05 0.05 0.04 0.03 0.03 0.02 0.02 0.02 0.01 0.01 0.01 0.01 0.01 0.01 0.02 0.03 0.03 0.04 0.06 0.08 0.08 0.08 0.09 0.09 0.10 0.10 0.10 0.09 0.10 0.11 0.13 0.17 0.25 0.31
0.17 0.12 0.08 0.05 0.05 0.05 0.06 0.06 0.06 0.06 0.05 0.05 0.03 0.03 0.03 0.02 0.02 0.02 0.02 0.02 0.02 0.02 0.03 0.04 0.04 0.05 0.06 0.08 0.10 0.10 0.09 0.09 0.09 0.08 0.09 0.10 0.11 0.13 0.13 0.15 0.19 0.23 0.32
0.17 0.11 0.07 0.05 0.06 0.06 0.06 0.06 0.07 0.07 0.06 0.04 0.04 0.03 0.03 0.03 0.02 0.02 0.02 0.03 0.04 0.04 0.05 0.05 0.06 0.07 0.08 0.09 0.11 0.10 0.09 0.10 0.10 0.11 0.13 0.12 0.13 0.14 0.15 0.19 0.22 0.26 0.35
0.14 0.08 0.06 0.07 0.08 0.08 0.08 0.09 0.11 0.10 0.07 0.06 0.05 0.04 0.03 0.03 0.04 0.04 0.04 0.05 0.05 0.06 0.07 0.08 0.10 0.10 0.09 0.09 0.10 0.11 0.10 0.10 0.11 0.13 0.15 0.15 0.18 0.19 0.22 0.29 0.33 0.35 0.39
0.17 0.11 0.10 0.11 0.12 0.13 0.14 0.14 0.13 0.11 0.09 0.07 0.05 0.04 0.05 0.05 0.06 0.06 0.06 0.06 0.07 0.08 0.10 0.11 0.10 0.10 0.09 0.08 0.08 0.07 0.07 0.09 0.11 0.15 0.19 0.22 0.27 0.30 0.34 0.36 0.35 0.38 0.44
0.22 0.19 0.20 0.20 0.19 0.18 0.16 0.15 0.13 0.11 0.08 0.07 0.06 0.06 0.07 0.08 0.07 0.07 0.08 0.09 0.10 0.10 0.10 0.10 0.09 0.09 0.08 0.05 0.03 0.03 0.05 0.09 0.12 0.15 0.17 0.22 0.30 0.34 0.33 0.31 0.32 0.39 0.48
0.27 0.29 0.28 0.26 0.23 0.21 0.20 0.18 0.16 0.14 0.12 0.12 0.11 0.10 0.10 0.09 0.10 0.10 0.10 0.13 0.13 0.12 0.11 0.09 0.07 0.06 0.04 0.04 0.05 0.05 0.06 0.11 0.15 0.18 0.17 0.16 0.19 0.19 0.19 0.25 0.30 0.37 0.51
0.31 0.30 0.26 0.25 0.26 0.28 0.30 0.32 0.29 0.25 0.22 0.20 0.16 0.13 0.11 0.10 0.10 0.10 0.13 0.13 0.11 0.09 0.08 0.06 0.04 0.04 0.04 0.03 0.04 0.05 0.07 0.12 0.18 0.20 0.18 0.12 0.09 0.11 0.14 0.20 0.26 0.34 0.49
0.27 0.25 0.24 0.27 0.33 0.40 0.43 0.39 0.33 0.28 0.23 0.20 0.15 0.11 0.08 0.08 0.10 0.12 0.12 0.09 0.07 0.07 0.06 0.04 0.03 0.04 0.03 0.02 0.02 0.03 0.05 0.10 0.14 0.16 0.15 0.14 0.10 0.13 0.21 0.22 0.23 0.30 0.42
0.22 0.25 0.29 0.37 0.46 0.48 0.43 0.37 0.31 0.25 0.20 0.16 0.12 0.08 0.07 0.08 0.08 0.07 0.07 0.07 0.07 0.07 0.05 0.03 0.02 0.03 0.03 0.02 0.01 0.02 0.03 0.06 0.09 0.10 0.10 0.09 0.09 0.17 0.30 0.36 0.41 0.49 0.62
0.21 0.31 0.42 0.50 0.50 0.44 0.37 0.31 0.25 0.19 0.14 0.11 0.08 0.07 0.06 0.05 0.03 0.04 0.06 0.06 0.06 0.05 0.03 0.02 0.02 0.03 0.04 0.01 0.00 0.01 0.03 0.04 0.05 0.05 0.06 0.09 0.13 0.22 0.38 0.51 0.59 0.67 0.82
0.29 0.39 0.45 0.44 0.39 0.31 0.25 0.21 0.17 0.13 0.08 0.06 0.06 0.05 0.03 0.02 0.01 0.03 0.05 0.05 0.03 0.03 0.02 0.02 0.02 0.03 0.02 0.01 0.00 0.00 0.01 0.02 0.03 0.05 0.08 0.15 0.22 0.30 0.48 0.66 0.69 0.85 0.97
0.36 0.37 0.34 0.30 0.23 0.16 0.14 0.13 0.10 0.06 0.03 0.03 0.03 0.02 0.01 0.00 0.01 0.02 0.03 0.02 0.02 0.02 0.01 0.02 0.02 0.02 0.03 0.02 0.01 0.00 0.01 0.02 0.06 0.11 0.17 0.26 0.32 0.37 0.57 0.71 0.89 1.10 1.17
0.31 0.28 0.22 0.16 0.10 0.07 0.07 0.06 0.04 0.02 0.02 0.02 0.02 0.01 0.01 0.01 0.01 0.02 0.02 0.01 0.01 0.01 0.01 0.01 0.02 0.02 0.03 0.02 0.01 0.01 0.01 0.03 0.07 0.15 0.27 0.34 0.38 0.51 0.73 0.96 1.15 1.22 1.11
0.22 0.15 0.10 0.07 0.04 0.03 0.02 0.01 0.01 0.01 0.01 0.02 0.01 0.01 0.01 0.01 0.00 0.01 0.01 0.01 0.01 0.01 0.02 0.03 0.03 0.04 0.04 0.03 0.03 0.03 0.03 0.04 0.06 0.14 0.27 0.40 0.47 0.62 0.85 1.04 1.15 1.12 1.02
0.09 0.06 0.04 0.02 0.01 0.01 0.00 0.00 0.00 0.01 0.01 0.01 0.01 0.00 0.01 0.01 0.01 0.01 0.00 0.01 0.01 0.01 0.02 0.04 0.05 0.06 0.06 0.04 0.05 0.06 0.06 0.07 0.10 0.16 0.22 0.30 0.42 0.61 0.78 0.93 0.99 0.96 0.88
0.04 0.02 0.02 0.01 0.01 0.00 0.00 0.00 0.00 0.00 0.01 0.01 0.01 0.00 0.00 0.00 0.00 0.01 0.01 0.01 0.00 0.01 0.01 0.02 0.03 0.04 0.04 0.03 0.03 0.05 0.07 0.10 0.15 0.18 0.22 0.31 0.45 0.63 0.79 0.90 0.90 0.82 0.73